Powrót do katalogu

ONEWEB-0140

AktywnyŁącznośćPO
NORAD 47286·PAYLOAD·🇬🇧 United Kingdom

Wystrzelony Dec 18, 2020 z Vostochny Cosmodrome

Loading…

Następne Przeloty (najbliższe 24 godziny)

TLE

ŚwieżeSource: CelesTrak SupGP

Epoka: Sep 14, 2026, 10:03 UTC

1 47286C 20100AE  26257.41928657 -.00003333  00000+0 -92764-2 0  2574
2 47286  87.8990 332.9322 0002021  97.6478  13.2664 13.12444655    18

Śledź ONEWEB-0140 w czasie rzeczywistym z AllMySat

Download on the App Store